Delta Virtual Airport Information Service

Sydney Kingsford Smith Airport

ICAO: YSSY Country: Australia
Latitude: -33.9461 Longitude: 151.177
Latest Arrival : DAC33 (PHNL-YSSY) Latest Departure : QFA415 (YSSY-YMML)


WX CaptureLIVE
Data provided by noaa.gov | Fetched at 03:26:31

METAR : YSSY 030900Z 21015KT 8000 -DZ FEW008 OVC010 18/17 Q1015 RF00/0/000/0

TAF : YSSY 030818Z 0309/0412 19012KT 9999 -DZ BKN009 FM040000 18014KT 9999 -DZ BKN012 FM040300 17020G30KT 9999 NSW BKN020 FM040800 17016KT 9999 BKN020 TEMPO 0309/0315 9999 BKN007 TEMPO 0315/0402 4000 DZ BKN007


Runway Data for YSSY
Data provided by openaviationdata.com

Runway ID Mag Var Hdg Length Elevation Surface ILS Freq ILS Id ILS Slope
7 13 61° 8292 ft 21 ft Asphalt 109.9 ISY 3
16L 13 154° 8011 ft 21 ft Asphalt 110.9 ISS 3
16R 13 154° 13022 ft 21 ft Asphalt 109.5 IKS 3
25 13 241° 8292 ft 21 ft Asphalt 109.7 ISW 3
34L 13 334° 13022 ft 21 ft Asphalt 110.1 ISN 3
34R 13 334° 8011 ft 21 ft Asphalt 109.3 IKN 3

Sydney Kingsford Smith Airport, Australia
Use only for reference purposes



Not for navigational purposes.